This demonstration page uses our WeatherBlox Daily Observations layout. Learn more.

Left ArrowRight Arrow

40.92501, -98.34201

Hourly Observations for May 19, 2020

Temp ( °F °C ) Dew Point ( °F °C ) Humidity (%) Winds ( mph kmh ) Pressure ( in mb ) Visibility ( mi km ) Precip ( " mm )
12:53 am 00:53 Clear 50 10 44 6.7 80 80 Calm 30.03 1017 10 16 0.00 0.00
1:53 am 01:53 Clear 47 8.3 43 6.1 86 86 N 5 7 30.02 1017 8 13 0.00 0.00
2:22 am 02:22 Mostly Cloudy 47 8.3 42 5.6 83 83 Calm 30.04 1017 8 13 0.00 0.00
2:53 am 02:53 Mostly Cloudy 47 8.3 43 6.1 86 86 NW 5 7 30.02 1017 8 13 0.00 0.00
3:53 am 03:53 Cloudy 50 10 45 7.2 83 83 Calm 30.00 1016 8 13 0.00 0.00
4:53 am 04:53 Cloudy 50 10 45 7.2 83 83 NNW 3 6 30.00 1016 8 13 0.00 0.00
5:53 am 05:53 Cloudy 50 10 46 7.8 86 86 N 3 6 30.01 1016 8 13 0.00 0.00
6:53 am 06:53 Cloudy 53 11.7 48 8.9 83 83 NE 5 7 30.01 1016 7 11 0.00 0.00
7:53 am 07:53 Cloudy 56 13.3 47 8.3 72 72 ENE 7 11 30.02 1017 10 16 0.00 0.00
8:53 am 08:53 Cloudy 56 13.3 47 8.3 72 72 E 7 11 30.04 1017 10 16 0.00 0.00
9:53 am 09:53 Cloudy 57 13.9 47 8.3 69 69 E 5 7 30.04 1017 10 16 0.00 0.00
10:53 am 10:53 Cloudy 58 14.4 47 8.3 67 67 NE 7 11 30.04 1017 10 16 0.00 0.00
11:53 am 11:53 Cloudy 59 15 48 8.9 67 67 VRB 3 6 30.05 1018 10 16 0.00 0.00
12:53 pm 12:53 Cloudy 60 15.6 49 9.4 67 67 SE 7 11 30.04 1017 10 16 0.00 0.00
1:53 pm 13:53 Cloudy 64 17.8 49 9.4 58 58 E 5 7 30.02 1017 10 16 0.00 0.00
2:53 pm 14:53 Mostly Cloudy 66 18.9 50 10 56 56 E 5 7 30.00 1016 10 16 0.00 0.00
3:20 pm 15:20 Partly Cloudy 67 19.4 50 10 55 55 ESE 7 11 29.93 1014 10 16 0.00 0.00
3:53 pm 15:53 Mostly Sunny 68 20 50 10 53 53 ESE 7 11 29.98 1015 10 16 0.00 0.00
4:53 pm 16:53 Sunny 69 20.6 50 10 51 51 ENE 6 9 29.96 1015 10 16 0.00 0.00
5:53 pm 17:53 Sunny 71 21.7 50 10 47 47 SE 9 15 29.95 1014 10 16 0.00 0.00
6:53 pm 18:53 Sunny 71 21.7 50 10 47 47 E 13 20 29.93 1014 10 16 0.00 0.00
7:53 pm 19:53 Sunny 69 20.6 50 10 51 51 E 10 17 29.93 1014 10 16 0.00 0.00
8:53 pm 20:53 Clear 65 18.3 50 10 59 59 E 8 13 29.95 1014 10 16 0.00 0.00
9:53 pm 21:53 Clear 62 16.7 50 10 65 65 E 10 17 29.97 1015 10 16 0.00 0.00
10:53 pm 22:53 Clear 60 15.6 50 10 70 70 ESE 12 19 29.99 1016 10 16 0.00 0.00
11:53 pm 23:53 Clear 58 14.4 50 10 75 75 ESE 13 20 30.00 1016 10 16 0.00 0.00

Powered by AerisWeather